Regional Weather Roundup
Issued by NWS

Home | Current Version | Previous Version | Text Only | Print | Product List | Glossary On
Versions: 1 2 3 4 5 6 7 8 9 10 11 12 13 14 15 16 17 18 19 20 21 22 23 24 25 26 27 28 29 30 31 32 33 34 35 36 37 38 39 40 41 42 43 44 45 46 47 48 49 50
000
ASPQ40 PGUM 261512
RWRPQ
WEATHER ROUNDUP FOR THE MARIANAS AND MICRONESIA
NATIONAL WEATHER SERVICE TIYAN GU
100 AM CHST SUN JUL 27 2014

GUZ001>004-261600-
MARIANA ISLANDS-

CITY           SKY/WX    TMP DP  RH WIND       PRES   REMARKS
GUAM AIRPORT   CLEAR     81  77  89 CALM      29.87F
ANDERSEN AFB   CLEAR     79  75  89 W5        29.87F
ROTA AIRPORT   NOT AVBL
TINIAN AP      NOT AVBL
SAIPAN AP      CLEAR     79  75  89 E3        29.85F

$$

PMZ161-261600-
REPUBLIC OF PALAU-

CITY           SKY/WX    TMP DP  RH WIND       PRES   REMARKS
KOROR AP       CLOUDY    82  81  94 SW12G21   29.81F HX  95
KOROR WSO      CLOUDY    81  73  78 SW12G23   29.82S

$$

PMZ171>174-261600-
FEDERATED STATES OF MICRONESIA-

CITY           SKY/WX    TMP DP  RH WIND       PRES   REMARKS
YAP AIRPORT    CLOUDY    81  75  83 S13G21    29.81S
CHUUK AP       LGT RAIN  81  75  83 W12       29.85F
POHNPEI AP     NOT AVBL
POHNPEI WSO    CLOUDY    81  75  83 SW5       29.86F
KOSRAE AP      NOT AVBL

$$

PMZ181-261600-
REPUBLIC OF THE MARSHALL ISLANDS-

CITY           SKY/WX    TMP DP  RH WIND       PRES   REMARKS
KWAJALEIN AP   CLEAR     82  75  78 SE9       29.83F
MAJURO AP      NOT AVBL
MAJURO WSO     PTCLDY    79  75  89 CALM      29.83F

$$



USA.gov is the U.S. government's official web portal to all federal, state and local government web resources and services.